When you browse on this site, cookies collect data to enhance your experience and personalize the content and advertising you see.
Visit our Privacy Policy to learn more. By continuing to use the site, you agree to this use of cookies and data.
  • In Hungary
  • List of Countries
  • For 7 days
  • Water Temperature
  • Weather Map
  • News
  • Weather Widgets
  • user-avatar
    Login

    Hourly Weather Er-Riyad

    Today, 13 November, Wednesday

    Time Temperature Precipitation Wind Pressure Humidity
    00:00 +19°C° 0 mm 2 mps 711 mmHg 40%
    01:00 +19°C° 0 mm 2 mps 710 mmHg 41%
    02:00 +18°C° 0 mm 2 mps 710 mmHg 41%
    03:00 +18°C° 0 mm 1 mps 710 mmHg 42%
    04:00 +17°C° 0 mm 2 mps 710 mmHg 42%
    05:00 +17°C° 0 mm 2 mps 710 mmHg 42%
    06:00 +17°C° 0 mm 2 mps 711 mmHg 41%
    07:00 +19°C° 0 mm 2 mps 711 mmHg 38%
    08:00 +21°C° 0 mm 3 mps 712 mmHg 34%
    09:00 +23°C° 0 mm 4 mps 712 mmHg 30%
    10:00 +25°C° 0 mm 3 mps 712 mmHg 29%
    11:00 +26°C° 0 mm 3 mps 712 mmHg 27%
    12:00 +27°C° 0 mm 2 mps 711 mmHg 26%
    13:00 +27°C° 0 mm 2 mps 711 mmHg 25%
    14:00 +28°C° 0 mm 2 mps 711 mmHg 25%
    15:00 +28°C° 0 mm 2 mps 710 mmHg 25%
    16:00 +26°C° 0 mm 3 mps 710 mmHg 29%
    17:00 +25°C° 0 mm 4 mps 711 mmHg 34%
    18:00 +22°C° 0 mm 5 mps 711 mmHg 39%
    19:00 +22°C° 0.1 mm 5 mps 711 mmHg 42%
    20:00 +21°C° 0.1 mm 4 mps 711 mmHg 44%
    21:00 +21°C° 0.1 mm 3 mps 711 mmHg 47%
    22:00 +20°C° 0 mm 2 mps 711 mmHg 48%
    23:00 +19°C° 0 mm 2 mps 711 mmHg 49%

    Tomorrow, 14 November, Thursday

    Time Temperature Precipitation Wind Pressure Humidity
    00:00 +19°C° 0 mm 1 mps 711 mmHg 50%
    01:00 +19°C° 0 mm 1 mps 710 mmHg 49%
    02:00 +19°C° 0 mm 1 mps 710 mmHg 47%
    03:00 +19°C° 0 mm 1 mps 710 mmHg 46%
    04:00 +18°C° 0 mm 2 mps 710 mmHg 46%
    05:00 +17°C° 0 mm 2 mps 710 mmHg 47%
    06:00 +17°C° 0 mm 2 mps 711 mmHg 47%
    07:00 +19°C° 0 mm 2 mps 711 mmHg 40%
    08:00 +21°C° 0 mm 2 mps 712 mmHg 34%
    09:00 +24°C° 0 mm 3 mps 712 mmHg 27%
    10:00 +25°C° 0 mm 3 mps 712 mmHg 25%
    11:00 +26°C° 0 mm 3 mps 712 mmHg 23%
    12:00 +27°C° 0 mm 3 mps 711 mmHg 21%
    13:00 +28°C° 0 mm 2 mps 711 mmHg 21%
    14:00 +28°C° 0 mm 2 mps 710 mmHg 21%
    15:00 +28°C° 0 mm 1 mps 710 mmHg 22%
    16:00 +27°C° 0 mm 2 mps 710 mmHg 24%
    17:00 +25°C° 0 mm 3 mps 710 mmHg 26%
    18:00 +24°C° 0 mm 3 mps 710 mmHg 28%
    19:00 +22°C° 0 mm 3 mps 710 mmHg 29%
    20:00 +22°C° 0 mm 3 mps 710 mmHg 30%
    21:00 +21°C° 0 mm 3 mps 710 mmHg 31%
    22:00 +20°C° 0 mm 3 mps 710 mmHg 33%
    23:00 +20°C° 0 mm 3 mps 710 mmHg 34%

    Day after tomorrow, 15 November, Friday

    Time Temperature Precipitation Wind Pressure Humidity
    00:00 +19°C° 0 mm 3 mps 710 mmHg 35%
    01:00 +19°C° 0 mm 3 mps 710 mmHg 36%
    02:00 +18°C° 0 mm 3 mps 709 mmHg 37%
    03:00 +18°C° 0 mm 3 mps 709 mmHg 38%
    04:00 +18°C° 0 mm 3 mps 709 mmHg 39%
    05:00 +18°C° 0 mm 3 mps 709 mmHg 40%
    06:00 +17°C° 0 mm 3 mps 709 mmHg 41%
    07:00 +19°C° 0 mm 3 mps 710 mmHg 36%
    08:00 +22°C° 0 mm 4 mps 710 mmHg 31%
    09:00 +25°C° 0 mm 4 mps 711 mmHg 27%
    10:00 +25°C° 0 mm 4 mps 711 mmHg 26%
    11:00 +26°C° 0 mm 3 mps 710 mmHg 25%
    12:00 +27°C° 0 mm 2 mps 710 mmHg 24%
    13:00 +28°C° 0 mm 2 mps 709 mmHg 22%
    14:00 +28°C° 0 mm 2 mps 709 mmHg 22%
    15:00 +29°C° 0 mm 1 mps 708 mmHg 22%
    16:00 +28°C° 0 mm 1 mps 708 mmHg 23%
    17:00 +26°C° 0 mm 1 mps 708 mmHg 24%
    18:00 +25°C° 0 mm 2 mps 708 mmHg 26%
    19:00 +25°C° 0 mm 3 mps 708 mmHg 26%
    20:00 +23°C° 0 mm 4 mps 708 mmHg 27%
    21:00 +23°C° 0 mm 5 mps 708 mmHg 27%
    22:00 +22°C° 0 mm 5 mps 708 mmHg 29%
    23:00 +21°C° 0 mm 4 mps 708 mmHg 30%

    16 November, Saturday

    Time Temperature Precipitation Wind Pressure Humidity
    00:00 +20°C° 0 mm 4 mps 708 mmHg 32%
    01:00 +19°C° 0 mm 4 mps 707 mmHg 32%
    02:00 +19°C° 0 mm 4 mps 707 mmHg 32%
    03:00 +19°C° 0 mm 4 mps 707 mmHg 33%
    04:00 +19°C° 0 mm 4 mps 707 mmHg 33%
    05:00 +19°C° 0 mm 4 mps 708 mmHg 33%
    06:00 +19°C° 0 mm 4 mps 708 mmHg 33%
    07:00 +21°C° 0 mm 5 mps 708 mmHg 29%
    08:00 +23°C° 0 mm 6 mps 709 mmHg 25%
    09:00 +24°C° 0 mm 7 mps 709 mmHg 21%
    10:00 +27°C° 0 mm 7 mps 709 mmHg 19%
    11:00 +29°C° 0 mm 7 mps 708 mmHg 18%
    12:00 +30°C° 0 mm 7 mps 708 mmHg 16%
    13:00 +30°C° 0 mm 7 mps 708 mmHg 17%
    14:00 +30°C° 0 mm 6 mps 707 mmHg 18%
    15:00 +32°C° 0 mm 6 mps 707 mmHg 18%
    16:00 +29°C° 0 mm 5 mps 707 mmHg 19%
    17:00 +27°C° 0 mm 4 mps 707 mmHg 21%
    18:00 +26°C° 0 mm 3 mps 707 mmHg 22%
    19:00 +25°C° 0 mm 3 mps 707 mmHg 22%
    20:00 +23°C° 0 mm 4 mps 708 mmHg 22%
    21:00 +23°C° 0 mm 5 mps 708 mmHg 22%
    22:00 +22°C° 0 mm 5 mps 708 mmHg 23%
    23:00 +21°C° 0 mm 5 mps 708 mmHg 24%

    17 November, Sunday

    Time Temperature Precipitation Wind Pressure Humidity
    00:00 +20°C° 0 mm 4 mps 708 mmHg 25%
    01:00 +20°C° 0 mm 4 mps 708 mmHg 25%
    02:00 +19°C° 0 mm 4 mps 708 mmHg 25%
    03:00 +19°C° 0 mm 4 mps 708 mmHg 25%
    04:00 +19°C° 0 mm 4 mps 708 mmHg 24%
    05:00 +18°C° 0 mm 4 mps 708 mmHg 24%
    06:00 +18°C° 0 mm 4 mps 708 mmHg 24%
    07:00 +20°C° 0 mm 6 mps 709 mmHg 20%
    08:00 +22°C° 0 mm 7 mps 710 mmHg 17%
    09:00 +26°C° 0 mm 8 mps 710 mmHg 13%
    10:00 +27°C° 0 mm 8 mps 710 mmHg 12%
    11:00 +28°C° 0 mm 9 mps 709 mmHg 11%
    12:00 +31°C° 0 mm 9 mps 709 mmHg 10%
    13:00 +31°C° 0 mm 9 mps 709 mmHg 10%
    14:00 +31°C° 0 mm 9 mps 709 mmHg 10%
    15:00 +31°C° 0 mm 8 mps 709 mmHg 10%
    16:00 +29°C° 0 mm 7 mps 709 mmHg 12%
    17:00 +27°C° 0 mm 6 mps 709 mmHg 13%
    18:00 +25°C° 0 mm 5 mps 709 mmHg 15%
    19:00 +25°C° 0 mm 5 mps 709 mmHg 17%
    20:00 +25°C° 0 mm 5 mps 709 mmHg 19%
    21:00 +25°C° 0 mm 4 mps 710 mmHg 21%
    22:00 +23°C° 0 mm 4 mps 710 mmHg 24%
    23:00 +23°C° 0 mm 4 mps 709 mmHg 26%

    18 November, Monday

    Time Temperature Precipitation Wind Pressure Humidity
    00:00 +22°C° 0 mm 5 mps 709 mmHg 28%
    01:00 +22°C° 0 mm 5 mps 709 mmHg 30%
    02:00 +21°C° 0 mm 5 mps 709 mmHg 32%
    03:00 +21°C° 0 mm 5 mps 709 mmHg 34%
    04:00 +20°C° 0 mm 5 mps 709 mmHg 36%
    05:00 +20°C° 0 mm 5 mps 709 mmHg 38%
    06:00 +19°C° 0 mm 5 mps 709 mmHg 39%
    07:00 +21°C° 0 mm 6 mps 710 mmHg 36%
    08:00 +23°C° 0 mm 7 mps 710 mmHg 33%
    09:00 +26°C° 0 mm 8 mps 711 mmHg 30%
    10:00 +27°C° 0 mm 8 mps 710 mmHg 28%
    11:00 +29°C° 0 mm 8 mps 710 mmHg 25%
    12:00 +31°C° 0 mm 8 mps 710 mmHg 22%
    13:00 +32°C° 0 mm 8 mps 710 mmHg 21%
    14:00 +32°C° 0 mm 7 mps 709 mmHg 20%
    15:00 +32°C° 0 mm 6 mps 709 mmHg 19%
    16:00 +30°C° 0 mm 6 mps 709 mmHg 21%
    17:00 +28°C° 0 mm 5 mps 709 mmHg 23%
    18:00 +27°C° 0 mm 4 mps 710 mmHg 24%
    19:00 +26°C° 0 mm 4 mps 710 mmHg 25%
    20:00 +26°C° 0 mm 4 mps 710 mmHg 26%
    21:00 +25°C° 0 mm 4 mps 710 mmHg 27%
    22:00 +24°C° 0 mm 3 mps 710 mmHg 30%
    23:00 +22°C° 0 mm 3 mps 709 mmHg 33%
    Show more